Tracking 20945 objects as of 8-Jul-2020
HD Live streaming from Space Station
objects crossing your sky now

FLOCK 2K 26

Track FLOCK 2K 26 now!
10-day predictions
FLOCK 2K 26 is classified as:


NORAD ID: 42883
Int'l Code: 2017-042BL
Perigee: 437.0 km
Apogee: 448.2 km
Inclination: 96.9 °
Period: 93.3 minutes
Semi major axis: 6813 km
RCS: Unknown
Launch date: July 14, 2017
Source: United States (US)
Launch site: TYURATAM MISSILE AND SPACE COMPLEX (TTMTR)
aabbcc
Your satellite tracking list
Your tracking list is empty




NASA's NSSDC Master Catalog

Two Line Element Set (TLE):
1 42883U 17042BL  20190.61388551 +.00004159 +00000-0 +94157-4 0  9997
2 42883 096.8900 058.2088 0008245 234.5878 125.4602 15.43610613167437
Source of the keplerian elements: AFSPC